Regional Weather Roundup
Issued by NWS

Home | Current Version | Previous Version | Text Only | Print | Product List | Glossary Off
Versions: 1 2 3 4 5 6 7 8 9 10 11 12 13 14 15 16 17 18 19 20 21 22 23 24 25 26 27 28 29 30 31 32 33 34 35 36 37 38 39 40 41 42 43 44 45 46 47 48 49 50

301
ASUS45 KTFX 270510
RWRMT
MONTANA REGIONAL WEATHER ROUNDUP
NATIONAL WEATHER SERVICE GREAT FALLS MT
1000 PM MST SUN FEB 26 2017

NOTE: "FAIR" INDICATES FEW OR NO CLOUDS BELOW 12000 FEET WITH NO
SIGNIFICANT WEATHER AND/OR OBSTRUCTIONS TO VISIBILITY.

MTZ001>007-043-270600-
WEST OF THE DIVIDE

CITY           SKY/WX    TMP DP  RH WIND       PRES   REMARKS
KALISPELL      CLOUDY    19  12  74 N18       29.63S WCI   4
MISSOULA       LGT SNOW  28  28 100 CALM      29.60S VSB 3/4
BUTTE          CLOUDY    21  10  62 S6        29.53S WCI  13
MULLAN PASS    LGT SNOW  16  15  96 CALM      29.47S FOG
ANACONDA         N/A     21  18  86 SE7       29.54S WCI  13
DEER LODGE       N/A     25  19  80 S7        29.57S WCI  17
EUREKA           N/A     19  16  86 SE5       29.68S
HAMILTON         N/A     27  23  86 CALM      29.58S
LIBBY            N/A     25  23  93 CALM      29.64S
RONAN            N/A     23  20  89 N14       29.67R WCI  11
$$

MTZ008-052>055-270600-
SOUTHWEST MONTANA

CITY           SKY/WX    TMP DP  RH WIND       PRES   REMARKS
BOZEMAN        CLOUDY    26  18  71 CALM      29.59F
DILLON         CLOUDY    24   7  48 SW13      29.55F WCI  12
W YELLOWSTONE  SNOW      16  14  93 SW8       29.58F VSB 1/2 WCI   5
ENNIS          CLOUDY    25  10  54 S14G21    29.62F WCI  13
THREE FORKS      N/A     27 -69   1 CALM      29.63S
TWIN BRIDGES     N/A     25   8  48 SE2       29.62F
$$

MTZ009-010-012-014-046-048-049-054-270600-
EAST SLOPES AND CENTRAL MONTANA

CITY           SKY/WX    TMP DP  RH WIND       PRES   REMARKS
CUT BANK       CLOUDY    11   7  84 NE8       29.71F FOG     WCI  -1
GREAT FALLS    LGT SNOW  15  12  88 NE10      29.70S FOG     WCI   2
MALMSTROM AFB  LGT SNOW  16  16 100 N8        29.71F WCI   5
HELENA         LGT SNOW  18  15  88 W8        29.65S FOG     WCI   8
AUGUSTA        LGT SNOW  10   8  89 N10       29.66S WCI  -4
BOWMANS CRNR   LGT SNOW  10   8  92 N12       29.64F WCI  -4
CHOTEAU          N/A     12  10  92 N9        29.72S FOG     WCI   0
POWER          FLURRIES  13  10  89 N6        29.69F WCI   4
RAYNESFORD     FLURRIES  16  12  85 SE10      29.66F WCI   3
ULM            LGT SNOW  17  15  92 MISG      29.70S
$$

MTZ011-013-016-021-045-047-050-051-270600-
NORTH CENTRAL MONTANA

CITY           SKY/WX    TMP DP  RH WIND       PRES   REMARKS
HAVRE          LGT SNOW  18  14  84 NE13      29.79S FOG     WCI   5
LEWISTOWN      LGT SNOW  17  13  84 E8        29.64F FOG     WCI   7
N BAR RANCH    LGT SNOW  16  12  86 E6        29.66S WCI   7
CHINOOK          N/A     18  16  93 N6        29.80S WCI   9
DENTON         LGT SNOW  17  15  93 N8        29.66F WCI   7
FORT BENTON      N/A     19  16  86 MISG      29.77S
GEYSER         LGT SNOW  15  13  92 NE5       29.66F
GRASS RANGE    LGT SNOW  17  16  94 NE7       29.64F WCI   8
JUDITH GAP     LGT SNOW  14  11  90 N15       29.60F WCI  -2
ROY            LGT SNOW  17  16  93 MISG      29.69R
STANFORD       LGT SNOW  14  13  93 N3        29.64F FOG
WINIFRED       LGT SNOW  16  15  95 NE10      29.68S FOG     WCI   4
$$

MTZ017>020-022>027-061-062-270600-
NORTHEAST MONTANA

CITY           SKY/WX    TMP DP  RH WIND       PRES   REMARKS
GLASGOW        CLOUDY    18  13  80 CALM      29.79F
JORDAN           N/A     21  14  74 E10       29.75F WCI  10
SIDNEY         FLURRIES  22  18  85 CALM      29.82S
WOLF POINT     CLOUDY    13   9  84 CALM      29.82F
PLENTYWOOD       N/A     12   9  85 CALM      29.78F
POPLAR           N/A     12   9  85 S5        29.82F
SCOBEY           N/A      5  -5  63 CALM      29.78R
$$

MTZ028>42-056>058-270600-
SOUTHCENTRAL AND SOUTHEAST MONTANA

CITY           SKY/WX    TMP DP  RH WIND       PRES   REMARKS
BAKER          CLOUDY    20  17  88 SE6       29.76S WCI  12
BILLINGS       CLOUDY    26  19  74 N5        29.62F
LIVINGSTON     CLOUDY    27  12  53 SW23G30   29.55F WCI  12
MILES CITY     CLOUDY    26  17  68 NE8       29.74F WCI  18
BIG TIMBER     CLOUDY    27  12  54 CALM      29.60F
EKALAKA          N/A     21  15  78 E5        29.71F
FORSYTH          N/A     25  19  80 E12       29.71F WCI  14
HARLOWTON      FLURRIES  18  15  86 NE8       29.61S WCI   8
LAUREL           N/A     26  18  72 NW3       29.63F
$$

REGIONAL REPORTS...DAKOTAS

CITY           SKY/WX    TMP DP  RH WIND       PRES   REMARKS
WILLISTON      CLEAR     16  11  80 W9        29.81S WCI   4
MINOT          CLOUDY    17  11  77 SW10      29.80F WCI   5
DICKINSON      PTCLDY    12   9  87 S3        29.76F
BEACH            N/A    N/A N/A N/A MISG        N/A
CROSBY           N/A     16  14  93 W12G17    29.81S WCI   3
TIOGA            N/A      7   7 100 W3        29.79F
WATFORD CITY   CLOUDY    14  10  85 SW6       29.81S WCI   5
BISMARCK       CLEAR     13  11  92 E3        29.86S
GRAND FORKS    CLEAR      6  -2  69 SW7       29.91R WCI  -6
FARGO          CLOUDY    20  12  71 S8        29.91S WCI  10
BUFFALO SD       N/A     22  19  89 E5        29.69S
RAPID CITY     CLOUDY    26  15  63 NW6       29.77R WCI  19
$$

REGIONAL REPORTS...WYOMING/IDAHO/WASHINGTON

CITY           SKY/WX    TMP DP  RH WIND       PRES   REMARKS
GILLETTE       CLOUDY    23  12  62 S13       29.65F WCI  11
SHERIDAN       MOCLDY    24  16  71 SW13      29.63F WCI  12
BUFFALO WY     MOCLDY    19   5  54 NW5       29.62F
CODY           MOCLDY    21   9  59 SE8       29.61F WCI  11
YELLOWSTONE LA   N/A     10   8  92 CALM      29.58S
IDAHO FALLS    LGT SNOW  26  21  81 SW9       29.66F WCI  17
SALMON         CLOUDY    28  16  59 CALM      29.60S
BOISE          MOCLDY    31  24  75 SE12      29.67S WCI  22
SPOKANE        CLOUDY    28  27  96 CALM      29.64S FOG
$$

REGIONAL REPORTS...ALBERTA

CITY           SKY/WX    TMP DP  RH WIND       PRES   REMARKS
EDMONTON       CLEAR      3  -6  66 W7        29.78F WCI  -9
CALGARY        FLURRIES   9   3  78 S9        29.73F WCI  -5
LETHBRIDGE     LGT SNOW  12   9  85 NE5       29.79S
MEDICINE HAT   CLEAR      9   1  72 N6        29.85S WCI  -1
WATERTON GATE    N/A      7   3  85 NE6         N/A  WCI  -3
CARDSTON         N/A      9   5  85 CALM        N/A
MILK RIVER       N/A     12  10  92 N7          N/A  WCI   2
$$

REGIONAL REPORTS...SASKATCHEWAN

CITY           SKY/WX    TMP DP  RH WIND       PRES   REMARKS
SWIFT CURRENT  FLURRIES   7   3  85 N8        29.77S WCI  -6
REGINA         PTCLDY     7   0  72 NW14      29.80S WCI -10
SASKATOON      CLEAR     -8 -11  84 NW8       29.87S WCI -23
VAL MARIE        N/A     14  10  85 N6          N/A  WCI   5
$$




USA.gov is the U.S. government's official web portal to all federal, state and local government web resources and services.